Weather History for KBCB - November, 2013

Change the Weather History Date:

Saturday, November 16, 2013

  Actual Average Record
Temperature  
Mean Temperature 46 °F 43 °F  
Max Temperature 52 °F 56 °F 72 °F (1991)
Min Temperature 40 °F 31 °F 10 °F (1967)
Degree Days  
Heating Degree Days 19 22  
Month to date heating degree days 361 308  
Since 1 July heating degree days 833 835  
Cooling Degree Days 0 0  
Month to date cooling degree days 0 0  
Year to date cooling degree days 568 573  
Moisture  
Dew Point 49 °F    
Average Humidity 100    
Maximum Humidity 100    
Minimum Humidity 100    
Precipitation  
Precipitation 0.05 in 0.09 in 2.55 in (1989)
Month to date precipitation 0.57 1.47  
Year to date precipitation 43.90 36.54  
Snow  
Snow 0.00 in - - ()
Month to date snowfall T  
Since 1 July snowfall T  
Since 1 September snowfall T  
Snow Depth 0.00 in    
Sea Level Pressure  
Sea Level Pressure 30.26 in    
Wind  
Wind Speed 1 mph (ESE)    
Max Wind Speed 7 mph    
Max Gust Speed -    
Visibility 3 miles    
Events Fog , Rain    
T = Trace of Precipitation, MM = Missing Value Source: NWS Daily Summary

Daily Weather History Graph

Daily Weather History Graph

Search for Another Location

Airport or City:

Trip Planner

Search our weather history database for the weather conditions in past years. The results will help you decide how hot, cold, wet, or windy it might be!

Date:

Astronomy

Nov. 16, 2013 Rise Set
Actual Time 7:01 AM EST 5:10 PM EST
Civil Twilight 6:34 AM EST 5:38 PM EST
Nautical Twilight 6:02 AM EST 6:09 PM EST
Astronomical Twilight 5:31 AM EST 6:40 PM EST
Moon 4:44 PM EST (11/16) 5:57 AM EST (11/16)
Length of Visible Light 11h 04m
Length of Day
10h 08m
Waxing Gibbous, 99% of the Moon is Illuminated
Nov 16
Waxing Gibbous
Nov 17
Full
Nov 25
Last Quarter
Dec 2
New
Dec 9
First Quarter

Hourly Weather History & Observations

Time (EST) Temp. Dew Point Humidity Pressure Visibility Wind Dir Wind Speed Gust Speed Precip Events Conditions
12:15 AM 46.4 °F 46.4 °F 100% 30.25 in 5.0 mi Calm Calm - N/A   Light Drizzle
12:35 AM 46.4 °F 46.4 °F 100% 30.26 in 4.0 mi Calm Calm - N/A   Overcast
12:55 AM 46.4 °F 46.4 °F 100% 30.25 in 4.0 mi Calm Calm - 0.01 in Rain Rain
1:15 AM 46.4 °F 46.4 °F 100% 30.25 in 3.0 mi Calm Calm - 0.01 in Rain Rain
1:35 AM 46.4 °F 46.4 °F 100% 30.24 in 2.5 mi Calm Calm - 0.04 in Rain Rain
1:55 AM 46.4 °F 46.4 °F 100% 30.24 in 2.0 mi Calm Calm - 0.04 in Rain Light Rain
2:15 AM 46.4 °F 46.4 °F 100% 30.24 in 1.5 mi Calm Calm - 0.01 in   Overcast
2:35 AM 46.4 °F 46.4 °F 100% 30.24 in 1.2 mi Calm Calm - 0.01 in   Overcast
2:55 AM 46.4 °F 46.4 °F 100% 30.24 in 0.8 mi Calm Calm - 0.01 in   Overcast
3:15 AM 44.6 °F 44.6 °F 100% 30.24 in 0.8 mi Calm Calm - N/A   Overcast
3:35 AM 44.6 °F 44.6 °F 100% 30.23 in 0.5 mi Calm Calm - N/A Fog Fog
3:55 AM 44.6 °F 44.6 °F 100% 30.23 in 0.8 mi Calm Calm - N/A   Overcast
4:15 AM 44.6 °F 44.6 °F 100% 30.23 in 0.2 mi Calm Calm - N/A Fog Fog
4:35 AM 44.6 °F 44.6 °F 100% 30.24 in 0.5 mi Calm Calm - N/A Fog Fog
4:55 AM 42.8 °F 42.8 °F 100% 30.24 in 0.2 mi Calm Calm - N/A Fog Fog
5:15 AM 42.8 °F 42.8 °F 100% 30.24 in 0.2 mi Calm Calm - N/A Fog Fog
5:35 AM 42.8 °F 42.8 °F 100% 30.24 in 0.2 mi Calm Calm - N/A Fog Fog
5:55 AM 42.8 °F 42.8 °F 100% 30.24 in 0.2 mi Calm Calm - N/A Fog Fog
6:15 AM 42.8 °F 42.8 °F 100% 30.25 in 0.5 mi Calm Calm - N/A Fog Fog
6:35 AM 42.8 °F 42.8 °F 100% 30.26 in 1.5 mi Calm Calm - N/A   Overcast
6:55 AM 44.6 °F 44.6 °F 100% 30.25 in 2.0 mi Calm Calm - N/A   Overcast
7:15 AM 44.6 °F 44.6 °F 100% 30.27 in 2.0 mi Calm Calm - N/A   Overcast
7:35 AM 44.6 °F 44.6 °F 100% 30.28 in 1.5 mi Calm Calm - N/A   Overcast
7:55 AM 44.6 °F 44.6 °F 100% 30.28 in 1.8 mi Calm Calm - N/A   Overcast
8:15 AM 46.4 °F 46.4 °F 100% 30.28 in 1.8 mi Calm Calm - N/A   Overcast
8:35 AM 46.4 °F 46.4 °F 100% 30.29 in 1.2 mi Calm Calm - N/A   Overcast
8:55 AM 48.2 °F 48.2 °F 100% 30.29 in 1.2 mi Calm Calm - N/A   Overcast
9:15 AM 48.2 °F 48.2 °F 100% 30.29 in 1.5 mi Calm Calm - N/A   Overcast
9:35 AM 48.2 °F 48.2 °F 100% 30.29 in 1.2 mi Calm Calm - N/A   Overcast
9:55 AM 48.2 °F 48.2 °F 100% 30.29 in 3.0 mi Calm Calm - N/A   Overcast
10:15 AM 48.2 °F 48.2 °F 100% 30.30 in 4.0 mi Calm Calm - N/A   Overcast
10:35 AM 50.0 °F 50.0 °F 100% 30.30 in 4.0 mi Calm Calm - N/A   Overcast
10:55 AM 50.0 °F 50.0 °F 100% 30.30 in 7.0 mi Calm Calm - N/A   Overcast
11:15 AM 50.0 °F 50.0 °F 100% 30.30 in 10.0 mi Calm Calm - N/A   Overcast
11:35 AM 50.0 °F 50.0 °F 100% 30.30 in 7.0 mi Calm Calm - N/A   Overcast
11:55 AM 51.8 °F 51.8 °F 100% 30.30 in 7.0 mi Calm Calm - N/A   Overcast
12:15 PM 51.8 °F 51.8 °F 100% 30.28 in 5.0 mi Calm Calm - N/A   Overcast
12:35 PM 51.8 °F 51.8 °F 100% 30.27 in 4.0 mi Calm Calm - N/A   Overcast
12:55 PM 51.8 °F 51.8 °F 100% 30.27 in 4.0 mi Calm Calm - N/A   Overcast
1:15 PM 51.8 °F 51.8 °F 100% 30.26 in 3.0 mi Calm Calm - N/A   Overcast
1:35 PM 51.8 °F 51.8 °F 100% 30.26 in 4.0 mi Calm Calm - N/A   Overcast
1:55 PM 51.8 °F 51.8 °F 100% 30.25 in 7.0 mi Calm Calm - N/A   Overcast
2:15 PM 53.6 °F 53.6 °F 100% 30.25 in 7.0 mi SE 3.5 mph - N/A   Overcast
2:35 PM 53.6 °F 53.6 °F 100% 30.24 in 5.0 mi ESE 3.5 mph - N/A   Overcast
2:55 PM 51.8 °F 51.8 °F 100% 30.24 in 5.0 mi Calm Calm - N/A   Overcast
3:15 PM 53.6 °F 53.6 °F 100% 30.24 in 7.0 mi Calm Calm - N/A   Overcast
3:35 PM 53.6 °F 53.6 °F 100% 30.24 in 7.0 mi Calm Calm - N/A   Overcast
3:55 PM 53.6 °F 53.6 °F 100% 30.24 in 7.0 mi Calm Calm - N/A   Overcast
4:15 PM 53.6 °F 53.6 °F 100% 30.24 in 10.0 mi Calm Calm - N/A   Overcast
4:35 PM 53.6 °F 53.6 °F 100% 30.24 in 7.0 mi ESE 6.9 mph - N/A   Overcast
4:55 PM 51.8 °F 51.8 °F 100% 30.24 in 5.0 mi ESE 5.8 mph - N/A   Overcast
5:15 PM 51.8 °F 51.8 °F 100% 30.24 in 4.0 mi ESE 5.8 mph - N/A   Overcast
5:35 PM 51.8 °F 51.8 °F 100% 30.23 in 4.0 mi ESE 4.6 mph - N/A   Overcast
5:55 PM 51.8 °F 51.8 °F 100% 30.24 in 3.0 mi ESE 6.9 mph - N/A   Overcast
6:15 PM 51.8 °F 51.8 °F 100% 30.24 in 3.0 mi ESE 4.6 mph - N/A   Overcast
6:35 PM 51.8 °F 51.8 °F 100% 30.25 in 2.0 mi ESE 5.8 mph - N/A   Overcast
6:55 PM 51.8 °F 51.8 °F 100% 30.25 in 1.8 mi ESE 5.8 mph - N/A   Overcast
7:15 PM 51.8 °F 51.8 °F 100% 30.26 in 1.5 mi Calm Calm - N/A   Overcast
7:35 PM 51.8 °F 51.8 °F 100% 30.26 in 1.2 mi East 3.5 mph - N/A   Overcast
7:55 PM 51.8 °F 51.8 °F 100% 30.27 in 1.2 mi Calm Calm - N/A   Overcast
8:15 PM 51.8 °F 51.8 °F 100% 30.27 in 1.5 mi Calm Calm - N/A   Drizzle
8:35 PM 51.8 °F 51.8 °F 100% 30.26 in 1.8 mi Calm Calm - N/A   Light Drizzle
8:55 PM 51.8 °F 51.8 °F 100% 30.26 in 1.8 mi East 3.5 mph - N/A   Overcast
9:15 PM 51.8 °F 51.8 °F 100% 30.25 in 2.0 mi Calm Calm - N/A   Overcast
9:35 PM 51.8 °F 51.8 °F 100% 30.25 in 2.0 mi Calm Calm - N/A   Overcast
9:55 PM 51.8 °F 51.8 °F 100% 30.25 in 1.8 mi Calm Calm - N/A   Overcast
10:15 PM 51.8 °F 51.8 °F 100% 30.25 in 2.5 mi Calm Calm - N/A   Overcast
10:35 PM 51.8 °F 51.8 °F 100% 30.25 in 2.5 mi Calm Calm - N/A   Overcast
10:55 PM 51.8 °F 51.8 °F 100% 30.25 in 2.5 mi Calm Calm - N/A   Overcast
11:15 PM 51.8 °F 51.8 °F 100% 30.25 in 2.5 mi Calm Calm - N/A   Overcast
11:35 PM 51.8 °F 51.8 °F 100% 30.25 in 4.0 mi Calm Calm - N/A   Overcast
11:55 PM 51.8 °F 51.8 °F 100% 30.24 in 3.0 mi Calm Calm - N/A   Overcast